• In Deutschland
  • Länderverzeichnis
  • Für 7 Tage
  • Wassertemperatur
  • Satellitenkarten
  • Wetterkarte
  • Widgets
  • user-avatar
    Anmelden

    Stündliche Wetter Shandong

    Heute, 25 November, Samstag

    Zeit Temperatur Niederschläge Wind Luftdruck Luftfeuchtigkeit
    00:00 +3°C° 0 mm 5 m/S 763 mmHg 29%
    01:00 +3°C° 0 mm 5 m/S 763 mmHg 31%
    02:00 +3°C° 0 mm 5 m/S 762 mmHg 35%
    03:00 +2°C° 0 mm 5 m/S 762 mmHg 38%
    04:00 +3°C° 0 mm 4 m/S 762 mmHg 41%
    05:00 +2°C° 0 mm 3 m/S 762 mmHg 44%
    06:00 +2°C° 0 mm 3 m/S 762 mmHg 45%
    07:00 +2°C° 0 mm 3 m/S 762 mmHg 47%
    08:00 +3°C° 0 mm 3 m/S 762 mmHg 47%
    09:00 +5°C° 0 mm 3 m/S 762 mmHg 42%
    10:00 +9°C° 0 mm 3 m/S 762 mmHg 36%
    11:00 +11°C° 0 mm 3 m/S 762 mmHg 30%
    12:00 +12°C° 0 mm 3 m/S 761 mmHg 27%
    13:00 +13°C° 0 mm 3 m/S 761 mmHg 24%
    14:00 +14°C° 0 mm 4 m/S 761 mmHg 21%
    15:00 +13°C° 0 mm 3 m/S 760 mmHg 22%
    16:00 +12°C° 0 mm 3 m/S 760 mmHg 24%
    17:00 +12°C° 0 mm 2 m/S 760 mmHg 26%
    18:00 +10°C° 0 mm 2 m/S 760 mmHg 26%
    19:00 +10°C° 0 mm 3 m/S 761 mmHg 27%
    20:00 +9°C° 0 mm 3 m/S 761 mmHg 28%
    21:00 +9°C° 0 mm 3 m/S 761 mmHg 27%
    22:00 +8°C° 0 mm 3 m/S 762 mmHg 27%
    23:00 +8°C° 0 mm 3 m/S 762 mmHg 26%

    Morgen, 26 November, Sonntag

    Zeit Temperatur Niederschläge Wind Luftdruck Luftfeuchtigkeit
    00:00 +7°C° 0 mm 3 m/S 763 mmHg 26%
    01:00 +7°C° 0 mm 3 m/S 764 mmHg 26%
    02:00 +5°C° 0 mm 3 m/S 765 mmHg 27%
    03:00 +4°C° 0 mm 4 m/S 765 mmHg 28%
    04:00 +3°C° 0 mm 4 m/S 766 mmHg 29%
    05:00 +2°C° 0 mm 5 m/S 767 mmHg 30%
    06:00 +1°C° 0 mm 5 m/S 768 mmHg 27%
    07:00 +1°C° 0 mm 5 m/S 768 mmHg 24%
    08:00 0°C° 0 mm 5 m/S 769 mmHg 21%
    09:00 +2°C° 0 mm 5 m/S 770 mmHg 19%
    10:00 +3°C° 0 mm 5 m/S 770 mmHg 17%
    11:00 +5°C° 0 mm 5 m/S 771 mmHg 15%
    12:00 +6°C° 0 mm 5 m/S 770 mmHg 15%
    13:00 +6°C° 0 mm 4 m/S 770 mmHg 15%
    14:00 +7°C° 0 mm 4 m/S 769 mmHg 15%
    15:00 +7°C° 0 mm 3 m/S 769 mmHg 18%
    16:00 +6°C° 0 mm 2 m/S 769 mmHg 21%
    17:00 +6°C° 0 mm 1 m/S 769 mmHg 24%
    18:00 +5°C° 0 mm 1 m/S 769 mmHg 25%
    19:00 +5°C° 0 mm 1 m/S 769 mmHg 27%
    20:00 +4°C° 0 mm 1 m/S 769 mmHg 29%
    21:00 +4°C° 0 mm 1 m/S 769 mmHg 30%
    22:00 +4°C° 0 mm 1 m/S 769 mmHg 31%
    23:00 +3°C° 0 mm 2 m/S 769 mmHg 32%

    übermorgen, 27 November, Montag

    Zeit Temperatur Niederschläge Wind Luftdruck Luftfeuchtigkeit
    00:00 +2°C° 0 mm 2 m/S 768 mmHg 33%
    01:00 +2°C° 0 mm 2 m/S 768 mmHg 34%
    02:00 +2°C° 0 mm 2 m/S 768 mmHg 35%
    03:00 +2°C° 0 mm 2 m/S 767 mmHg 37%
    04:00 +2°C° 0 mm 2 m/S 766 mmHg 39%
    05:00 +2°C° 0 mm 2 m/S 766 mmHg 41%
    06:00 +1°C° 0 mm 3 m/S 765 mmHg 43%
    07:00 +1°C° 0 mm 3 m/S 765 mmHg 46%
    08:00 +2°C° 0 mm 3 m/S 765 mmHg 48%
    09:00 +4°C° 0 mm 4 m/S 765 mmHg 46%
    10:00 +6°C° 0 mm 5 m/S 765 mmHg 44%
    11:00 +9°C° 0 mm 5 m/S 765 mmHg 42%
    12:00 +10°C° 0 mm 6 m/S 764 mmHg 40%
    13:00 +10°C° 0 mm 6 m/S 763 mmHg 38%
    14:00 +11°C° 0 mm 6 m/S 761 mmHg 37%
    15:00 +10°C° 0 mm 5 m/S 761 mmHg 41%
    16:00 +10°C° 0 mm 4 m/S 761 mmHg 46%
    17:00 +8°C° 0 mm 4 m/S 760 mmHg 51%
    18:00 +8°C° 0 mm 4 m/S 760 mmHg 54%
    19:00 +8°C° 0 mm 4 m/S 761 mmHg 57%
    20:00 +7°C° 0 mm 4 m/S 761 mmHg 61%
    21:00 +8°C° 0 mm 4 m/S 761 mmHg 62%
    22:00 +8°C° 0 mm 4 m/S 761 mmHg 64%
    23:00 +8°C° 0 mm 4 m/S 761 mmHg 65%

    28 November, Dienstag

    Zeit Temperatur Niederschläge Wind Luftdruck Luftfeuchtigkeit
    00:00 +8°C° 0 mm 4 m/S 761 mmHg 67%
    01:00 +8°C° 0 mm 4 m/S 760 mmHg 68%
    02:00 +8°C° 0 mm 4 m/S 760 mmHg 69%
    03:00 +8°C° 0 mm 3 m/S 760 mmHg 72%
    04:00 +7°C° 0 mm 3 m/S 760 mmHg 75%
    05:00 +7°C° 0 mm 3 m/S 760 mmHg 79%
    06:00 +7°C° 0 mm 2 m/S 761 mmHg 78%
    07:00 +7°C° 0 mm 2 m/S 762 mmHg 78%
    08:00 +6°C° 0 mm 2 m/S 762 mmHg 78%
    09:00 +8°C° 0 mm 2 m/S 763 mmHg 65%
    10:00 +10°C° 0 mm 3 m/S 764 mmHg 53%
    11:00 +12°C° 0 mm 3 m/S 764 mmHg 40%
    12:00 +12°C° 0 mm 4 m/S 764 mmHg 35%
    13:00 +12°C° 0 mm 5 m/S 764 mmHg 30%
    14:00 +13°C° 0 mm 6 m/S 764 mmHg 25%
    15:00 +12°C° 0 mm 5 m/S 765 mmHg 24%
    16:00 +9°C° 0 mm 5 m/S 765 mmHg 23%
    17:00 +8°C° 0 mm 4 m/S 766 mmHg 23%
    18:00 +7°C° 0 mm 5 m/S 767 mmHg 24%
    19:00 +6°C° 0 mm 5 m/S 768 mmHg 26%
    20:00 +5°C° 0 mm 5 m/S 768 mmHg 28%
    21:00 +5°C° 0 mm 5 m/S 769 mmHg 31%
    22:00 +3°C° 0 mm 5 m/S 769 mmHg 34%
    23:00 +3°C° 0 mm 5 m/S 770 mmHg 37%

    29 November, Mittwoch

    Zeit Temperatur Niederschläge Wind Luftdruck Luftfeuchtigkeit
    00:00 +3°C° 0 mm 4 m/S 770 mmHg 39%
    01:00 +3°C° 0 mm 4 m/S 770 mmHg 42%
    02:00 +2°C° 0 mm 3 m/S 771 mmHg 44%
    03:00 +2°C° 0 mm 3 m/S 771 mmHg 50%
    04:00 +2°C° 0 mm 3 m/S 771 mmHg 56%
    05:00 +1°C° 0 mm 4 m/S 771 mmHg 62%
    06:00 +1°C° 0 mm 4 m/S 772 mmHg 65%
    07:00 +1°C° 0 mm 4 m/S 772 mmHg 68%
    08:00 +3°C° 0 mm 4 m/S 772 mmHg 71%
    09:00 +3°C° 0 mm 5 m/S 773 mmHg 64%
    10:00 +5°C° 0 mm 5 m/S 773 mmHg 57%
    11:00 +6°C° 0 mm 5 m/S 773 mmHg 50%
    12:00 +6°C° 0 mm 5 m/S 772 mmHg 48%
    13:00 +6°C° 0 mm 4 m/S 772 mmHg 46%
    14:00 +6°C° 0 mm 4 m/S 771 mmHg 43%
    15:00 +6°C° 0 mm 4 m/S 771 mmHg 45%
    16:00 +5°C° 0 mm 3 m/S 771 mmHg 46%
    17:00 +5°C° 0 mm 3 m/S 771 mmHg 47%
    18:00 +4°C° 0 mm 3 m/S 772 mmHg 48%
    19:00 +4°C° 0 mm 3 m/S 772 mmHg 48%
    20:00 +4°C° 0 mm 3 m/S 772 mmHg 49%
    21:00 +4°C° 0 mm 3 m/S 772 mmHg 48%
    22:00 +5°C° 0 mm 2 m/S 772 mmHg 48%
    23:00 +4°C° 0 mm 2 m/S 772 mmHg 47%

    30 November, Donnerstag

    Zeit Temperatur Niederschläge Wind Luftdruck Luftfeuchtigkeit
    00:00 +4°C° 0 mm 2 m/S 772 mmHg 47%
    01:00 +4°C° 0 mm 2 m/S 772 mmHg 47%
    02:00 +4°C° 0 mm 1 m/S 772 mmHg 47%
    03:00 +4°C° 0 mm 1 m/S 771 mmHg 48%
    04:00 +3°C° 0 mm 1 m/S 771 mmHg 48%
    05:00 +3°C° 0 mm 1 m/S 771 mmHg 49%
    06:00 +3°C° 0 mm 1 m/S 772 mmHg 49%
    07:00 +3°C° 0 mm 1 m/S 772 mmHg 48%
    08:00 +3°C° 0 mm 1 m/S 773 mmHg 48%
    09:00 +5°C° 0 mm 1 m/S 773 mmHg 44%
    10:00 +6°C° 0 mm 1 m/S 773 mmHg 40%
    11:00 +7°C° 0 mm 2 m/S 773 mmHg 36%
    12:00 +7°C° 0 mm 2 m/S 773 mmHg 37%
    13:00 +7°C° 0 mm 2 m/S 772 mmHg 37%
    14:00 +8°C° 0 mm 3 m/S 772 mmHg 38%
    15:00 +7°C° 0 mm 3 m/S 772 mmHg 43%
    16:00 +5°C° 0 mm 3 m/S 772 mmHg 47%
    17:00 +4°C° 0 mm 3 m/S 772 mmHg 52%
    18:00 +3°C° 0 mm 3 m/S 772 mmHg 61%
    19:00 +2°C° 0 mm 3 m/S 772 mmHg 70%
    20:00 +1°C° 0 mm 3 m/S 773 mmHg 79%
    21:00 +2°C° 0 mm 2 m/S 773 mmHg 82%
    22:00 +1°C° 0 mm 2 m/S 773 mmHg 85%
    23:00 +1°C° 0 mm 2 m/S 773 mmHg 87%
    Mehr zeigen